Starlink 30996

operational
NORAD ID: 59023 Int'l Des: 2024-038 Owner: SPXS Country: US Constellation: starlink
LEOCIRCULAR

Starlink 30996について

説明を読み込み中...

リアルタイム位置

3D地球を読み込み中...

次回通過

高度履歴

Altitude vs Time

uPlot chart will show altitude changes over time

軌道要素

1 59023U 24038A 25352.45266568 -.00001532 00000-0 -46150-4 0 9998
2 59023 43.0000 125.8337 0001074 257.8542 102.2189 15.27588499103704
Epoch: Dec 18, 2025 • Age: 30 hours

現在のステータス

高度 487.5 km
速度 7.62 km/s
衛星直下点 -21.20°S, 117.77°E
打ち上げ日 Feb 25, 2024
運用期間 1.8 years
タイプ internet

技術仕様

分類 Payload
質量 730.00 kg
乾燥質量 700.00 kg
総質量 730.00 kg
長さ 0.30 m
直径 4.10 m
スパン 29.00 m
形状 Box + pan
製造者 SPXS
バスタイプ Starlink V2M
フェーズステータス In Orbit
所有者/国 SPXS/US

大規模コンステレーション

Loading constellations...